Skip Page Navigation
NASA JPL Caltech
NASA Logo - Jet Propulsion Laboratory + View the NASA Portal
+ Center for Near-Earth Object Studies
JPL Home Earth Solar System Stars & Galaxies Technology
JPL Solar System Dynamics
BODIES ORBITS EPHEMERIDES TOOLS PHYSICAL DATA DISCOVERY FAQ SITE MAP
JPL Small-Body Database Browser
Search: [ help ]  
500170 (2012 FF25)
Classification: Main-belt Asteroid          SPK-ID: 2500170
Ephemeris | Orbit Diagram | Orbital Elements | Mission Design | Physical Parameters | Discovery Circumstances ]

[ hide orbit diagram ]

For accurate long-term ephemerides, please instead use our Horizons system.This orbit viewer was implemented using two-body methods, and hence should not be used for determining accurate long-term trajectories (over several years or decades) or planetary encounter circumstances.


Orbital Elements at Epoch 2459396.5 (2021-Jul-01.0) TDB
Reference: JPL 14 (heliocentric ecliptic J2000)
 Element Value Uncertainty (1-sigma)   Units 
e .2513075066744486 8.856e-08  
a 2.599845459851215 5.8633e-08 au
q 1.946484779597121 2.4676e-07 au
i 30.05574364658112 2.8116e-05 deg
node 356.7483638514496 1.3322e-05 deg
peri 282.9414806248103 5.2822e-05 deg
M 2.636151670849613 4.1121e-05 deg
tp 2459385.287883028577
(2021-Jun-19.78788303)
0.00017497 TDB
period 1531.157009798019
4.19
5.1797e-05
1.418e-07
d
yr
n .2351163190295482 7.9537e-09 deg/d
Q 3.253206140105309 7.3368e-08 au
  Orbit Determination Parameters
   # obs. used (total)      58  
   data-arc span      2036 days (5.57 yr)  
   first obs. used      2012-02-26  
   last obs. used      2017-09-23  
   planetary ephem.      DE441  
   SB-pert. ephem.      SB441-N16  
   condition code      0  
   norm. resid. RMS      .69807  
   source      ORB  
   producer      Otto Matic  
   solution date      2021-Apr-14 18:05:14  

Additional Information
 Earth MOID = 1.11792 au 
 Jupiter MOID = 2.52637 au 
 T_jup = 3.186 
[ show covariance matrix ]

Ephemeris | Orbit Diagram | Orbital Elements | Mission Design | Physical Parameters | Discovery Circumstances ]

Physical Parameter Table
Parameter Symbol Value Units Sigma Reference Notes
absolute magnitude H 17.4   n/a MPO369156  

500170 (2012 FF25)          Discovered 2012-Feb-26 by Pan-STARRS 1 at Haleakala
Reference: Last Updated: 2017-10-09

Alternate Designations
 2012 FF25 = 2013 SF16 
Ephemeris | Orbit Diagram | Orbital Elements | Mission Design | Physical Parameters | Discovery Circumstances ]
ABOUT SSD CREDITS/AWARDS PRIVACY/COPYRIGHT GLOSSARY LINKS
FirstGov 2021-Jul-26 22:11 UT
(server date/time)  
NASA Home Page
Site Manager:   Ryan S. Park
Webmaster  Alan B. Chamberlin